Wind_Speed
5 4 4 9 3 5 5 5 13 11 13 15 22 5 15 19 26 23 23 22 25 30 36 33 28 32 32 32 32 35 37 35 35 35 35 36 36 35 40 41 37 34 37 46
1 7 6 9 9 8 6 7 15 10 11 17 16 11 12 26 24 25 25 30 28 33 40 33 23 34 34 33 32 32 31 32 34 36 36 36 34 36 37 40 42 45 50 52
10 9 17 14 9 4 15 14 17 19 17 9 13 16 16 24 25 32 25 24 26 27 26 45 33 18 34 41 34 28 30 33 37 40 42 39 35 35 38 43 49 52 56 58
8 12 20 13 4 11 5 19 20 15 11 6 12 7 21 19 16 4 31 33 25 27 24 30 27 43 50 51 25 22 32 35 39 41 40 39 40 42 44 47 50 55 58 59
7 13 10 1 17 12 18 17 9 10 10 5 14 7 20 30 32 12 17 25 30 30 35 30 40 48 9 39 22 37 40 39 46 44 43 40 44 48 51 52 54 58 59 59
4 10 6 13 17 16 11 10 13 11 12 15 10 8 20 24 31 20 23 27 21 20 30 32 37 45 46 53 40 48 53 43 43 44 42 43 47 50 53 55 58 60 61 66
8 12 10 10 3 11 17 9 9 8 8 17 8 11 18 18 22 27 29 24 26 26 25 37 38 42 48 35 46 44 49 46 42 39 44 47 49 54 57 57 60 63 66 66
12 15 11 7 11 15 12 11 6 4 11 10 14 22 15 8 26 15 13 23 27 25 27 33 40 13 38 24 28 44 47 44 44 46 49 50 53 56 58 60 62 66 66 62
8 10 16 17 17 16 9 6 10 1 12 12 19 25 16 21 27 23 32 36 35 39 33 34 33 42 40 44 58 53 48 44 45 50 53 53 55 57 59 63 66 67 63 62
13 4 12 10 17 18 3 7 11 12 10 10 8 24 20 13 31 42 41 36 41 33 31 29 32 40 47 45 51 47 46 47 52 55 58 58 59 60 62 65 66 63 62 65
22 21 13 22 18 13 4 17 2 12 11 13 14 17 28 27 36 37 37 38 34 27 28 30 33 36 45 45 45 46 46 49 52 53 57 58 59 61 64 64 61 61 63 65
17 14 16 16 24 14 11 14 22 27 23 18 9 22 31 33 34 44 47 38 40 35 25 23 30 38 42 42 41 44 48 50 55 58 57 58 59 62 62 58 57 59 60 65
13 10 8 17 24 18 22 20 19 8 31 15 16 16 26 33 42 37 28 37 35 34 25 14 41 40 40 38 40 44 49 51 53 55 57 57 59 60 55 52 54 54 61 58
12 11 12 11 16 25 21 23 22 24 21 21 25 28 28 30 35 29 6 34 42 36 24 33 38 38 38 39 42 48 51 50 53 54 58 59 60 52 48 50 49 50 56 46
14 13 12 17 10 19 25 16 14 19 27 21 25 30 27 33 35 35 41 45 44 31 30 35 36 35 37 42 47 50 50 50 53 55 57 55 47 45 48 46 43 45 48 41
14 14 18 18 14 25 28 16 24 23 23 27 39 21 39 30 38 27 32 42 31 32 30 33 32 35 41 46 49 49 49 51 53 54 50 45 45 46 44 41 39 40 40 37
18 20 22 18 14 26 27 17 24 29 26 33 32 37 43 26 32 39 39 35 33 36 29 28 34 40 44 48 48 48 50 52 52 49 48 43 41 43 40 37 35 35 32 31
22 22 21 23 20 20 21 28 36 31 32 35 37 40 36 31 40 34 33 37 27 27 28 33 38 43 46 47 47 48 51 52 49 48 42 38 43 38 38 33 32 32 30 25
24 27 29 28 16 19 26 36 38 34 28 37 36 35 34 28 40 31 28 26 22 27 32 37 41 44 45 45 45 48 51 49 48 45 41 40 38 36 34 31 30 28 25 23
20 22 20 23 23 21 30 29 32 33 34 39 36 32 22 23 29 25 22 21 25 31 35 39 42 42 42 44 44 48 50 45 43 44 36 41 35 33 32 30 28 26 24 21
20 13 20 9 14 23 21 28 27 31 35 37 27 23 19 18 19 18 19 23 28 32 36 40 41 39 42 44 44 47 46 44 43 40 37 38 33 31 31 29 27 25 23 21
27 28 18 8 24 29 28 28 31 31 31 23 20 18 17 12 11 15 20 24 29 33 37 39 39 39 41 42 44 45 43 42 42 36 39 34 32 29 29 28 25 23 22 20
25 28 26 30 32 31 30 32 31 25 17 16 15 12 7 9 14 18 22 27 32 35 37 37 38 39 39 40 42 43 42 40 39 35 40 32 31 28 27 26 24 21 21 21
20 27 24 26 28 29 34 32 21 15 13 11 9 9 11 15 17 21 24 29 34 36 37 36 38 39 38 39 41 42 41 38 38 35 38 31 30 26 26 24 21 20 20 21
30 31 32 34 36 23 20 11 14 10 11 10 12 13 15 17 20 24 27 32 35 36 36 36 40 38 37 37 39 40 39 37 38 34 35 29 27 26 25 22 19 18 19 19
24 28 33 29 20 8 15 12 10 11 10 10 12 14 17 20 24 27 31 34 34 35 36 38 39 38 36 36 38 39 37 36 38 33 34 28 26 25 23 20 19 17 19 18
Wind_Direction
83 80 320 275 309 270 292 318 278 265 305 300 315 259 287 262 276 319 302 301 297 311 302 294 324 316 324 324 317 315 313 314 315 317 319 315 309 307 306 307 313 307 308 309
217 306 325 280 281 274 298 258 290 287 291 305 313 311 292 266 281 305 319 315 321 320 311 310 306 311 338 318 310 307 308 313 316 316 316 317 313 312 312 311 309 307 304 304
228 260 281 250 275 311 278 267 255 290 298 310 304 324 295 284 292 308 319 317 315 324 325 321 312 348 335 318 306 311 316 316 318 317 323 324 320 314 311 312 311 309 307 307
230 257 267 278 268 250 296 297 314 316 316 317 325 336 295 293 305 292 337 333 341 330 327 338 322 314 313 310 304 334 326 324 329 329 327 323 322 318 313 309 307 309 308 307
204 252 266 95 257 260 279 298 349 27 344 321 252 8 313 308 304 32 333 326 333 340 337 317 322 320 235 355 316 339 330 328 329 323 321 318 317 316 314 312 313 313 308 305
187 239 180 220 254 274 316 10 322 303 291 295 319 326 307 296 305 312 309 310 313 322 295 314 316 325 321 312 309 329 326 324 321 318 321 318 317 315 315 317 316 314 311 310
247 276 240 281 264 310 324 343 344 353 342 336 23 281 247 273 286 306 299 305 315 329 334 318 298 301 305 305 302 320 319 324 321 321 320 319 317 318 319 318 315 313 312 311
224 214 232 262 316 305 280 306 295 311 280 252 272 283 308 314 303 298 307 332 321 306 300 316 304 297 294 287 307 329 323 322 322 322 321 321 321 321 319 317 316 316 314 313
252 244 277 295 313 302 285 325 266 48 349 332 354 337 347 325 302 299 303 314 310 302 308 291 311 290 301 319 317 325 328 322 319 318 320 321 322 320 319 318 319 317 316 316
199 279 272 272 297 293 57 293 355 49 331 330 313 305 323 306 297 303 309 307 308 309 311 325 307 306 310 315 322 322 323 320 320 325 323 323 323 321 321 322 320 319 318 316
223 219 250 265 288 277 12 325 310 308 285 284 311 285 278 284 300 302 309 317 323 318 314 305 304 312 316 319 318 317 318 320 324 320 321 322 322 322 323 320 321 322 320 318
231 234 224 282 274 275 287 246 284 289 323 318 325 308 306 306 316 314 310 315 322 321 300 302 310 314 318 316 318 318 319 323 325 324 324 322 323 322 319 322 325 324 326 328
266 261 245 284 294 323 358 356 337 318 330 352 337 312 311 299 295 297 297 307 317 322 330 303 319 317 319 322 323 321 324 327 323 323 322 323 322 322 325 327 327 332 336 335
262 262 261 247 313 315 341 333 342 321 307 315 303 296 299 311 312 325 325 306 320 317 309 315 317 321 325 327 326 329 327 327 326 325 325 324 326 328 329 330 333 341 343 343
261 275 269 255 263 269 290 275 276 281 298 288 299 304 296 304 306 294 289 297 317 317 325 321 322 324 329 332 333 330 329 329 328 328 326 329 331 332 332 333 341 347 352 357
262 271 274 270 287 285 285 296 310 299 292 285 304 297 298 321 304 304 323 330 317 313 329 317 323 332 338 333 332 331 331 331 331 328 332 334 334 335 335 339 346 351 358 7
267 266 270 280 289 292 310 313 297 291 294 303 303 306 316 317 287 311 311 313 321 333 323 330 334 339 337 333 332 333 333 334 334 333 334 333 335 336 340 344 350 353 358 11
276 271 270 278 279 296 296 296 288 295 299 300 300 309 314 300 305 317 313 326 321 329 334 336 339 337 335 334 335 335 335 337 338 340 338 337 338 341 345 349 352 353 360 7
271 274 277 277 277 271 275 277 287 288 299 292 308 315 313 290 315 326 329 335 336 336 338 338 337 336 334 335 337 336 339 340 341 341 339 341 341 346 350 353 353 356 1 8
287 284 279 270 270 289 273 285 295 294 306 315 316 310 314 308 311 326 328 334 336 336 336 335 335 336 336 336 338 338 343 341 343 342 341 342 345 350 353 356 355 359 3 10
272 249 308 238 259 270 255 272 299 300 304 301 305 314 316 314 315 323 332 335 333 332 334 335 335 338 337 338 339 341 346 343 346 343 344 344 350 353 355 356 358 4 7 14
269 280 296 307 278 274 265 284 298 299 297 297 305 311 311 313 317 324 326 329 331 334 335 335 335 337 338 338 339 344 347 345 348 347 345 348 354 355 357 359 3 11 15 23
257 269 276 278 277 283 284 290 295 295 290 300 307 306 297 303 313 321 329 333 333 334 335 335 336 339 340 339 339 345 347 346 349 349 348 352 356 359 0 4 9 17 21 24
275 278 272 277 279 282 285 288 280 288 290 297 281 277 294 305 316 323 327 330 331 332 334 335 339 339 339 338 340 347 349 348 351 350 351 356 358 2 4 10 15 22 25 31
257 276 278 282 289 295 276 279 283 283 287 282 270 283 295 305 314 320 324 327 330 333 334 336 338 338 338 339 341 349 351 349 352 351 354 359 3 7 8 18 24 29 31 41
262 269 277 284 296 288 285 298 279 281 278 279 280 287 297 308 316 320 323 327 329 330 332 335 336 336 338 339 341 350 352 349 354 353 356 1 6 10 14 24 27 35 36 46
Height
5929 5929 5935 5935 5936 5936 5937 5939 5936 5933 5931 5926 5926 5924 5924 5921 5915 5914 5910 5906 5901 5900 5886 5879 5878 5880 5873 5867 5863 5859 5857 5854 5849 5846 5843 5836 5831 5824 5815 5810 5807 5806 5803 5794
5931 5935 5937 5935 5934 5933 5935 5935 5931 5929 5927 5926 5924 5922 5921 5913 5910 5910 5907 5901 5899 5895 5878 5878 5875 5872 5871 5864 5860 5855 5851 5849 5845 5841 5837 5833 5826 5818 5811 5805 5800 5795 5790 5785
5934 5936 5933 5933 5934 5934 5932 5930 5927 5926 5924 5922 5921 5919 5918 5911 5905 5901 5902 5899 5896 5893 5880 5869 5862 5863 5861 5856 5853 5849 5847 5844 5840 5833 5827 5822 5819 5814 5808 5799 5791 5784 5777 5771
5935 5932 5931 5932 5933 5933 5931 5925 5925 5922 5920 5921 5920 5919 5912 5910 5903 5893 5896 5893 5894 5892 5893 5879 5865 5859 5856 5845 5846 5845 5842 5839 5833 5826 5820 5815 5810 5804 5798 5792 5785 5777 5768 5760
5934 5932 5931 5932 5930 5928 5927 5926 5923 5920 5919 5919 5918 5915 5912 5907 5903 5891 5898 5895 5890 5886 5879 5873 5867 5861 5829 5849 5826 5824 5837 5831 5825 5819 5813 5807 5801 5795 5787 5782 5774 5765 5755 5746
5928 5928 5931 5927 5926 5926 5925 5921 5921 5918 5917 5913 5914 5917 5909 5904 5904 5905 5902 5896 5892 5889 5878 5876 5871 5861 5851 5844 5838 5831 5828 5826 5820 5813 5807 5800 5794 5787 5779 5771 5762 5752 5743 5733
5928 5927 5926 5925 5926 5924 5922 5920 5919 5921 5917 5912 5914 5913 5911 5903 5901 5900 5898 5896 5892 5887 5882 5869 5866 5857 5849 5843 5835 5832 5825 5820 5814 5807 5800 5793 5786 5777 5768 5760 5750 5739 5729 5718
5927 5925 5922 5922 5923 5924 5920 5919 5918 5917 5916 5915 5906 5908 5903 5899 5897 5894 5892 5889 5886 5882 5878 5872 5862 5839 5839 5820 5825 5824 5820 5812 5804 5798 5791 5785 5776 5767 5757 5747 5737 5725 5713 5703
5918 5917 5919 5921 5922 5919 5919 5917 5912 5914 5914 5912 5908 5898 5896 5899 5895 5892 5889 5886 5883 5877 5872 5864 5861 5853 5842 5835 5824 5818 5810 5805 5800 5791 5783 5776 5768 5758 5748 5736 5724 5711 5700 5690
5920 5922 5921 5917 5919 5914 5916 5914 5912 5912 5914 5913 5913 5905 5899 5895 5890 5886 5885 5881 5876 5871 5863 5860 5850 5843 5835 5829 5822 5815 5809 5801 5791 5784 5773 5765 5756 5746 5734 5723 5710 5699 5687 5675
5917 5920 5921 5917 5915 5912 5897 5911 5908 5910 5910 5909 5908 5904 5894 5891 5888 5883 5880 5873 5869 5864 5858 5853 5845 5839 5834 5828 5821 5812 5805 5797 5788 5778 5767 5756 5746 5735 5724 5712 5700 5688 5675 5660
5913 5916 5916 5917 5908 5910 5913 5912 5910 5909 5909 5906 5904 5898 5891 5886 5881 5875 5871 5867 5863 5857 5853 5847 5843 5836 5830 5822 5816 5807 5799 5790 5779 5768 5759 5748 5738 5727 5716 5703 5691 5678 5664 5647
5910 5912 5914 5910 5904 5903 5905 5905 5905 5898 5901 5901 5901 5900 5892 5883 5878 5873 5865 5861 5856 5849 5848 5837 5838 5830 5823 5816 5810 5801 5792 5784 5772 5761 5750 5741 5730 5719 5706 5695 5683 5670 5655 5637
5907 5908 5910 5911 5910 5904 5904 5902 5902 5899 5900 5897 5898 5892 5886 5882 5874 5865 5852 5853 5849 5846 5846 5839 5831 5824 5816 5810 5803 5794 5785 5775 5765 5754 5743 5731 5720 5710 5699 5688 5677 5664 5650 5634
5903 5905 5906 5905 5905 5906 5906 5905 5904 5903 5899 5894 5890 5886 5879 5876 5868 5863 5855 5850 5845 5840 5838 5832 5825 5818 5811 5804 5796 5787 5777 5768 5756 5746 5734 5724 5713 5703 5694 5683 5672 5661 5649 5634
5900 5902 5902 5902 5904 5900 5897 5896 5900 5896 5893 5890 5886 5883 5871 5870 5862 5848 5845 5846 5842 5840 5833 5827 5820 5813 5805 5798 5790 5780 5771 5761 5750 5738 5728 5718 5708 5699 5690 5680 5670 5660 5650 5638
5897 5899 5898 5899 5900 5896 5895 5890 5893 5890 5888 5883 5879 5873 5865 5864 5853 5857 5849 5844 5837 5834 5829 5822 5815 5807 5800 5792 5783 5774 5765 5755 5744 5732 5722 5713 5704 5695 5686 5677 5668 5660 5652 5643
5893 5893 5895 5893 5894 5894 5891 5887 5881 5885 5882 5877 5872 5869 5864 5856 5852 5849 5843 5839 5832 5829 5824 5816 5810 5803 5796 5788 5779 5769 5760 5749 5737 5728 5718 5709 5701 5692 5683 5675 5667 5660 5653 5646
5889 5889 5888 5888 5890 5892 5887 5878 5874 5875 5877 5869 5867 5863 5859 5852 5844 5843 5837 5832 5827 5823 5818 5812 5806 5800 5792 5784 5775 5765 5755 5744 5734 5725 5716 5707 5698 5690 5682 5674 5668 5661 5654 5649
5883 5882 5881 5881 5882 5883 5877 5875 5873 5873 5868 5862 5860 5857 5854 5852 5844 5839 5834 5830 5826 5821 5816 5811 5804 5797 5789 5780 5772 5762 5752 5741 5731 5723 5715 5706 5697 5689 5682 5675 5668 5662 5656 5651
5876 5871 5875 5874 5874 5872 5863 5867 5869 5866 5866 5858 5856 5852 5849 5846 5842 5836 5832 5829 5825 5820 5814 5808 5801 5795 5786 5777 5768 5759 5749 5738 5730 5721 5713 5705 5696 5689 5682 5676 5669 5663 5658 5653
5874 5872 5864 5867 5870 5868 5865 5863 5865 5863 5857 5853 5852 5849 5845 5842 5839 5836 5832 5828 5823 5818 5812 5805 5798 5792 5783 5773 5765 5757 5746 5737 5729 5721 5713 5704 5696 5689 5683 5677 5671 5665 5660 5656
5870 5867 5869 5868 5865 5861 5861 5858 5857 5855 5852 5850 5848 5845 5842 5839 5837 5834 5830 5826 5820 5815 5809 5803 5795 5788 5780 5771 5763 5755 5745 5736 5728 5720 5713 5705 5697 5690 5684 5679 5673 5669 5664 5660
5863 5857 5862 5860 5858 5857 5853 5850 5849 5849 5848 5846 5844 5842 5840 5837 5834 5831 5828 5823 5817 5812 5806 5800 5792 5784 5777 5770 5761 5753 5744 5736 5728 5720 5713 5705 5698 5692 5686 5681 5676 5672 5668 5664
5856 5854 5851 5850 5849 5847 5843 5845 5845 5844 5844 5842 5841 5840 5837 5835 5832 5829 5825 5820 5814 5809 5803 5796 5790 5782 5775 5768 5760 5752 5743 5735 5728 5721 5714 5707 5700 5694 5689 5684 5680 5676 5673 5669
5850 5847 5844 5845 5842 5844 5842 5841 5841 5841 5841 5840 5838 5836 5834 5832 5829 5826 5821 5816 5811 5806 5799 5793 5787 5780 5773 5766 5758 5751 5743 5735 5728 5721 5715 5708 5702 5697 5692 5687 5684 5680 5677 5674